Tracking 29892 objects as of 21-Nov-2024
HD Live streaming from Space Station
objects crossing your sky now

COSMOS 1067

Track COSMOS 1067 now!
10-day predictions
COSMOS 1067 is classified as:


NORAD ID: 11168
Int'l Code: 1978-122A
Perigee: 1,164.3 km
Apogee: 1,217.8 km
Inclination: 83.0 °
Period: 109.1 minutes
Semi major axis: 7562 km
RCS: 3.476 m2 (large)
Launch date: December 26, 1978
Source: Commonwealth of Independent States (former USSR) (CIS)
Launch site: PLESETSK MISSILE AND SPACE COMPLEX (PKMTR)
Your satellite tracking list
Your tracking list is empty




NASA's NSSDC Master Catalog

Two Line Element Set (TLE):
1 11168U 78122A   24325.14152132  .00000056  00000-0  10680-3 0  9991
2 11168  82.9730 239.8591 0035338 201.0396 294.2624 13.20210981195357
Source of the keplerian elements: AFSPC